Location: The Jewett Observatory
(46.7288°N, 117.1525°W)
Time: 18:17:42
(UTC-07:00)

Daily predictions for brighter satellites

Satellite Brightness Start Highest point End
(mag) Time Altitude Azimuth Time Altitude Azimuth Time Altitude Azimuth
NOAA 11 4.5 21:04:21 10° SE 21:09:38 54° ENE 21:14:55 10° N
H-2A R/B 4.4 21:07:55 10° E 21:09:50 13° ENE 21:11:45 10° NNE
YAOGAN 6 2.5 21:07:01 10° SSE 21:10:31 84° ENE 21:14:02 10° N
Helios 1A 3.9 21:08:01 10° S 21:12:07 50° W 21:16:13 10° NNW
DEBRIS 4.0 21:10:37 10° SW 21:14:19 73° SSE 21:27:41 10° ENE
Cosmos 405 4.1 21:10:55 10° NNW 21:14:21 45° W 21:17:45 10° S
Resurs 01 Rocket 4.2 21:14:32 10° SW 21:17:47 20° W 21:21:04 10° NW
Cosmos 1238 Rocket 4.3 21:11:45 10° S 21:18:29 80° W 21:24:38 10° N
COSMOS 2487 2.9 21:15:25 10° S 21:18:47 41° ESE 21:22:10 10° NE
Cosmos 2181 Rocket 4.3 21:13:08 10° SSE 21:19:12 50° E 21:25:13 10° NNE
Helios 1B rocket 2.9 21:15:18 10° N 21:19:25 67° WNW 21:23:31 10° SSW
Meteor 2-19 Rocket 4.5 21:14:15 10° N 21:20:24 77° E 21:26:33 10° SSE
CRYOSAT 2 4.4 21:15:43 10° S 21:20:34 90° W 21:25:27 10° N
Cosmos 921 Rocket 3.1 21:16:38 10° NNW 21:21:09 89° ENE 21:25:33 10° SSE
Cosmos 2228 3.4 21:17:28 10° N 21:21:38 46° ENE 21:25:43 10° SSE
Cosmos 839 Rocket 4.5 21:16:46 10° NW 21:23:16 78° WSW 21:31:09 10° SSE
Lacrosse 5 rocket 3.4 21:19:47 10° NW 21:23:46 28° NNE 21:27:47 10° ENE
Cosmos 1452 Rocket 3.7 21:19:44 10° NNW 21:24:58 60° ENE 21:30:10 10° SE
Meteor 1-23 Rocket 4.5 21:19:54 10° SSW 21:25:29 76° WNW 21:31:10 10° N
Cosmos 2082 Rocket 2.6 21:22:15 10° S 21:27:36 44° ESE 21:32:56 10° NE
ERS-1 Rocket 3.0 21:22:37 10° SSE 21:27:39 89° W 21:32:42 10° NNW
Cosmos 2278 3.9 21:22:18 10° NNW 21:28:01 78° WSW 21:33:41 10° SSE
Cosmos 1656 3.6 21:29:21 10° NNW 21:34:50 87° ENE 21:40:11 11° SSE
Meteor 1-29 4.1 21:31:43 10° N 21:34:58 46° WNW 21:38:12 10° SW
TELKOM 3 4.3 21:34:24 10° W 21:36:27 30° SSW 21:38:24 14° SSE
ASTEX 1 4.1 21:35:25 10° S 21:40:13 55° W 21:45:03 10° NNW
Cosmos 1697 Rocket 2.8 21:35:07 10° NNW 21:40:45 72° ENE 21:45:47 13° SE
Okean 2 4.0 21:37:44 10° SSW 21:41:45 57° WNW 21:45:49 10° N
Iridium 43 3.7 21:40:38 10° N 21:42:49 48° E 21:44:23 17° SSE
SPOT 1/Viking Rocket 3.8 21:39:42 12° SE 21:44:22 55° ENE 21:49:24 10° N
Tiangong 2 1.8 21:41:35 10° WSW 21:44:34 37° S 21:46:43 16° SE
SL-8 Rocket 4.1 21:41:40 10° N 21:47:58 74° E 21:54:04 11° SSE
MetOp-A 4.3 21:43:30 10° S 21:48:51 78° WSW 21:54:15 10° NNW
Cosmos 2369 4.3 21:43:25 10° NW 21:49:00 55° WSW 21:54:33 10° S
Meteor 1-22 Rocket 4.4 21:44:24 10° N 21:49:37 51° ENE 21:54:02 15° SSE
Cosmos 1892 Rocket 3.7 21:45:18 10° SSW 21:49:43 79° W 21:54:08 10° N
SL-16 R/B 3.8 21:47:47 10° N 21:52:27 25° NE 21:57:03 10° ESE
Cosmos 1602 Rocket 4.1 21:51:11 14° SSE 21:54:32 39° E 21:58:34 10° NNE
Cosmos 2366 rocket 4.1 21:49:22 10° N 21:55:30 63° ENE 22:00:42 14° SSE
USA 229 DEB 3.9 21:50:30 10° NW 21:57:39 74° NE 22:03:48 15° SE
USA 229 3.9 21:50:36 10° NW 21:57:45 73° NE 22:03:54 15° SE
Cosmos 1833 Rocket 2.6 21:52:28 10° SSW 21:58:02 70° ESE 22:03:40 10° NNE
Cosmos 1271 Rocket 3.7 21:57:55 10° N 22:01:30 33° ENE 22:03:47 18° SE
Landsat 7 4.1 22:02:07 17° SE 22:05:36 56° ENE 22:10:17 10° N
Cosmos 1842 4.5 22:04:04 19° SE 22:05:48 26° E 22:09:06 10° NNE
Orbus 7S? 4.4 22:04:44 10° NW 22:13:09 66° NNE 22:16:10 17° ESE
ATLAS CENTAUR R/B 2.6 22:13:01 10° NNW 22:16:16 28° NE 22:18:44 14° E
IGS 5A 4.0 22:16:14 22° SE 22:18:38 46° ENE 22:22:38 10° N
Cosmos 1809 Rocket 4.5 22:12:54 10° N 22:19:02 84° W 22:24:07 15° S
Terra 2.1 22:17:37 21° SE 22:20:39 55° ENE 22:25:19 10° N
CARTOSAT-1 3.9 22:18:05 22° SE 22:20:39 53° ENE 22:24:53 10° N
Cosmos 1066 Rocket 4.3 22:17:44 10° SSW 22:23:17 78° WNW 22:29:01 10° N
USA 245 3.9 22:23:14 16° SW 22:24:25 24° W 22:26:21 10° NW
Cosmos 2360 Rocket 4.1 22:24:23 10° N 22:28:39 21° NE 22:32:54 10° E
SL-08 RB Rocket 4.4 22:26:23 15° S 22:29:56 48° W 22:34:18 10° NNW
ARGOS 4.0 22:25:02 11° S 22:29:58 46° W 22:35:12 10° NNW
Cosmos 1980 Rocket 2.2 22:24:47 10° NNW 22:30:28 80° WSW 22:34:08 23° SSE
H-2A R/B 2.2 22:28:04 18° S 22:31:46 66° WSW 22:36:52 10° NNW
Meteor 2-16 Rocket 4.4 22:29:24 10° N 22:35:35 85° E 22:39:51 21° S
SPOT 5 4.0 22:35:07 12° SSW 22:38:42 33° W 22:42:42 10° NNW
Meteor 1-4 Rocket 4.0 22:36:08 10° NNW 22:39:19 31° W 22:41:40 15° SSW
Cosmos 2218 Rocket 4.5 22:34:25 10° NNW 22:40:25 56° W 22:45:42 14° SSW
Cosmos 1953 2.9 22:37:24 10° N 22:41:21 45° ENE 22:42:56 30° SE
Timation 2 Rocket 3.9 22:35:53 10° SSW 22:42:13 89° WNW 22:48:22 10° NNE
Cosmos 1766 3.5 22:39:04 10° NNW 22:42:56 63° W 22:44:59 26° S
Cosmos 2322 Rocket 2.7 22:37:30 10° NNW 22:43:05 52° ENE 22:46:33 22° SE
Cosmos 1758 Rocket 4.5 22:41:55 26° SE 22:43:15 32° E 22:47:09 10° NNE
ISS -2.0 22:40:29 10° WNW 22:43:32 33° N 22:46:34 10° ENE
BREEZE-M DEB (TANK) 3.8 22:45:57 18° E 22:45:57 18° E 22:47:45 10° ENE
EP 2 4.1 22:44:30 48° SSW 22:45:06 79° SE 22:47:56 10° NE
H-2A R/B 2.1 22:42:43 28° SSE 22:45:09 89° ENE 22:49:42 10° NNW
Cosmos 1812 Rocket 3.8 22:41:05 10° NNW 22:45:33 65° W 22:48:10 24° S
Spot 4 4.1 22:47:39 28° SE 22:50:02 57° ENE 22:54:47 10° N
Cosmos 1269 Rocket 4.1 22:46:47 11° SSW 22:51:58 82° WNW 22:57:19 10° NNE
Lacrosse 5 2.6 22:51:06 29° SSE 22:52:02 32° SE 22:56:30 10° ENE
Cosmos 1331 Rocket 4.1 22:49:52 10° NNW 22:55:02 65° ENE 22:57:35 29° SE
CZ-2C R/B 4.4 22:52:20 10° NE 22:55:53 17° E 22:57:21 15° ESE
Cosmos 389 Rocket 2.5 22:52:33 10° N 22:56:00 65° ENE 22:56:50 46° SE
Cosmos 1048 Rocket 4.1 22:51:11 10° SSW 22:56:18 73° WNW 23:01:32 10° NNE
CZ-3A R/B 2.5 22:55:20 10° W 22:55:33 11° W 22:55:33 11° W
Cosmos 1470 3.6 22:53:47 10° N 22:57:32 37° ENE 22:58:43 30° ESE
Cosmos 972 Rocket 4.1 22:52:33 10° NNW 22:57:43 62° ENE 23:00:01 30° SE
Cosmos 1110 Rocket 4.0 22:54:46 10° NNW 23:00:03 81° ENE 23:02:34 32° SSE
DMSP B5D2-2 4.3 22:56:57 10° N 23:02:14 71° WNW 23:06:27 16° SSW
Meteor 1-21 4.4 22:58:20 17° SSW 23:02:52 74° WNW 23:08:40 10° N
Cosmos 1707 4.1 23:02:59 24° E 23:03:21 24° E 23:06:31 10° NE
Lacrosse 5 rocket 1.7 22:59:00 10° NW 23:03:40 76° NE 23:05:59 29° ESE
Cosmos 2239 Rocket 4.5 23:01:43 10° N 23:07:55 75° E 23:11:12 30° SSE
Nadezhda 3 Rocket 4.0 23:04:16 23° S 23:08:33 89° E 23:14:56 10° N
Cosmos 1805 3.6 23:06:02 10° NNW 23:09:52 57° W 23:11:17 34° SSW
Cosmos 1825 Rocket 3.4 23:08:08 35° S 23:09:56 86° E 23:14:17 10° N
Cosmos 1953 Rocket 3.6 23:08:57 38° SSE 23:10:30 64° E 23:14:56 10° NNE
SeaSat 1 4.1 23:07:17 12° E 23:10:49 26° NE 23:14:53 10° N
Cosmos 2082 Rocket 3.8 23:06:39 10° WSW 23:11:48 34° NW 23:16:57 10° NNE
SL-19 R/B 4.3 23:10:48 40° S 23:12:05 69° WSW 23:15:38 10° NNW
USA 267 4.2 23:07:09 10° ENE 23:12:19 24° SE 23:12:39 24° SE
PSLV R/B 3.7 23:15:53 41° WSW 23:16:01 41° W 23:18:43 10° NNW
Cosmos 1821 Rocket 4.0 23:12:10 10° N 23:18:30 87° E 23:21:50 31° S
NOSS 3-1 (C) 4.0 23:13:15 10° NW 23:20:45 79° SW 23:25:35 28° SSE
Tiangong 2 3.7 23:18:38 10° WSW 23:18:54 11° WSW 23:18:54 11° WSW
Cosmos 1758 3.9 23:21:25 10° NNW 23:25:17 49° W 23:26:32 35° SW
Cosmos-2242 3.1 23:21:44 10° N 23:26:01 65° E 23:27:09 45° SE
Cosmos 2084 Rocket 4.3 23:27:41 30° E 23:27:41 30° E 23:30:30 10° ENE
ALOS 2 3.8 23:26:07 25° ESE 23:27:39 31° ENE 23:31:32 10° N
CZ-2C R/B 3.9 23:30:01 27° ESE 23:32:37 45° ENE 23:38:05 10° N
CZ-4 R/B 4.2 23:27:38 10° N 23:32:38 66° WNW 23:35:30 25° SSW
SL-16 R/B 2.3 23:31:25 10° NNW 23:37:03 67° WSW 23:39:17 37° S
Cosmos 2251 Rocket 3.5 23:35:02 35° S 23:37:23 78° ESE 23:42:47 10° NNE
Cosmos 1727 Rocket 4.5 23:35:37 31° SE 23:38:03 46° E 23:43:58 10° NNE
Cosmos 1605 Rocket 4.0 23:35:17 10° N 23:41:24 72° E 23:44:02 36° SSE
Cosmos 1733 3.4 23:39:54 10° NNW 23:43:42 63° W 23:44:21 52° SW
Cosmos 2221 4.2 23:44:09 10° NNE 23:47:33 22° ENE 23:48:52 19° E
USA 234 4.2 23:43:00 10° E 23:49:11 46° NNE 23:55:22 10° NW
CZ-4B R/B 4.1 23:46:21 10° N 23:51:21 55° WNW 23:54:20 24° SW
Cosmos 2098 Rocket 3.5 23:46:40 10° N 23:51:28 80° E 23:53:37 40° SSE
Cosmos 1378 3.1 23:51:28 61° ESE 23:51:38 62° E 23:55:20 10° NNE
CZ-4C R/B 4.1 23:53:47 33° WSW 23:54:13 34° W 23:57:38 10° NNW
ATLAS CENTAUR R/B 2.3 23:51:59 10° NW 23:55:00 30° WSW 23:55:00 30° WSW
deb Kosmos-1763 4.4 23:54:34 49° SW 23:55:27 67° WNW 23:59:19 10° NNE
